CAPE
1180 1281 1387 1298 1467 1410 1382 1357 1298 1312 1468 1702 1862 1944 1804 1621 1483 1323 1498 1653 1804 1803 1874 2095 2150 2150 2224 2200 2219 2440 2534 2507 2435 2666 2895 3009 3020 2956 2931 2900 2810 2750 2642 2436 2404 2783 3036 3127 3109 2898 2693 2839 2986 2844 2682 2828 2832 2734 2560 2252 2021 2324 2232 2173 2191 2218 2243 2187 2184 2637 2671 2889 2880 2509 2343 2385 2515 2692 2782 2790 2781 2722 2667 2643 2726
1136 1311 1458 1411 1550 1571 1588 1587 1558 1500 1470 1488 1629 1815 1951 1919 1812 1690 1607 1726 1520 1642 1664 1792 1966 2047 2164 2245 2168 2231 2460 2534 2560 2633 2782 2912 2938 2953 2957 2946 2880 2764 2692 2450 2326 2510 2753 2847 2803 2655 2508 2678 2807 2877 2863 2731 2654 2623 2449 2188 2020 1679 2173 2298 2140 2076 2039 2039 2019 2085 2428 2960 2761 2357 2311 2430 2554 2654 2628 2691 2687 2538 2444 2524 2664
1218 1222 1438 1468 1485 1532 1584 1634 1628 1602 1578 1521 1481 1516 1604 1713 1820 1871 1729 1812 1617 1494 1445 1551 1706 1839 1978 2130 2150 2123 2214 2345 2444 2544 2658 2699 2719 2781 2844 2874 2794 2687 2572 2421 2378 2462 2590 2592 2545 2555 2545 2650 2604 2695 2661 2584 2460 2360 2316 2259 2170 1924 1799 1793 1864 1838 1757 1716 1932 2243 2535 2676 2326 2194 2361 2597 2647 2501 2463 2659 2653 2418 2256 2374 2486
1348 1442 1428 1522 1513 1493 1520 1566 1617 1626 1628 1609 1564 1502 1456 1438 1457 1507 1565 1652 1717 1561 1436 1451 1458 1622 1767 1893 1962 2016 2067 2151 2253 2334 2423 2438 2455 2480 2554 2634 2625 2540 2396 2347 2381 2402 2407 2354 2397 2517 2614 2596 2495 2428 2357 2382 2406 2336 2204 2177 2175 2111 1921 1578 1797 1811 1851 1763 1851 2105 2051 1761 1826 2220 2652 2648 2458 2377 2519 2674 2449 1959 1664 1592 1776
1213 1540 1549 1576 1580 1567 1550 1557 1553 1576 1590 1623 1644 1630 1578 1502 1389 1404 1426 1471 1548 1586 1528 1372 1271 1383 1557 1701 1804 1855 1940 2025 2108 2193 2252 2271 2257 2280 2301 2296 2306 2319 2308 2333 2600 2275 2283 2326 2393 2452 2540 2514 2378 2250 2249 2169 2037 1967 1970 1996 1999 1977 1787 1601 1636 1832 1846 1850 1848 1775 1714 1774 2290 2551 2413 2328 2367 2471 2568 2394 2068 1694 1360 1303 1572
1216 1410 1622 1584 1558 1551 1538 1534 1526 1563 1560 1528 1533 1600 1632 1624 1573 1477 1399 1458 1506 1522 1514 1407 1256 1238 1382 1534 1660 1776 1868 1951 1988 1995 2044 2099 2106 2142 2156 2138 2107 2048 2036 2045 2061 2129 2262 2316 2319 2346 2411 2450 2313 2086 1992 1968 1940 1869 1824 1862 1835 1718 1610 1438 1639 1838 1976 1978 1900 1866 1828 2056 2065 2084 2136 2349 2494 2500 2248 2042 1558 1060 1008 1108 1154
1293 1358 1487 1597 1733 1744 1659 1484 1317 1362 1398 1399 1417 1486 1536 1565 1529 1467 1378 1330 1376 1433 1423 1369 1310 1232 1243 1380 1505 1626 1711 1754 1746 1778 1849 1855 1833 1851 1910 1947 1946 1938 1919 1898 1863 1902 2028 2144 2198 2200 2247 2303 2217 2052 1954 1944 1952 1910 1898 1820 1808 1758 1655 1591 1574 1716 1855 1912 1873 1850 1792 1848 1924 1937 1912 2107 2136 2018 1850 1480 897 666 780 1022 1230
1281 1364 1326 1513 1646 1732 1790 1790 1752 1560 1314 1282 1280 1289 1389 1481 1517 1459 1326 1218 1141 1188 1195 1121 1130 1180 1201 1191 1381 1475 1537 1564 1571 1604 1624 1616 1632 1655 1702 1755 1785 1806 1808 1780 1745 1730 1795 1876 1954 2020 2062 2088 2056 1975 1905 1960 1949 1847 1718 1678 1648 1633 1594 1549 1498 1497 1502 1454 1322 1237 1257 1532 1618 1705 1731 1622 1676 1157 1031 940 869 907 976 1082 1143
962 1238 1403 1471 1652 1726 1706 1750 1747 1740 1718 1603 1460 1390 1358 1366 1371 1380 1319 1173 1030 1084 1051 968 829 873 953 1024 1092 1294 1417 1463 1498 1512 1509 1520 1532 1564 1601 1647 1706 1727 1709 1676 1654 1641 1621 1602 1616 1732 1819 2640 2347 2248 2054 1954 1808 1633 1563 1495 1427 1358 1359 1350 1324 1274 1230 1174 1157 1138 1197 1242 1241 1227 1302 1310 1072 806 799 988 1105 1028 962 968 996
1318 1361 1409 1542 1382 1578 1560 1630 1779 1842 1804 1708 1621 1722 1733 1606 1424 1332 1340 1279 1222 1281 1149 958 945 826 785 867 929 979 1061 1246 1438 1438 1461 1485 1484 1522 1532 1531 1586 1645 1645 1620 1621 1616 1588 1542 1517 1982 2581 3003 3255 2744 2153 2074 2305 1853 1540 1488 1460 1409 1269 1078 977 927 919 922 930 987 1080 1106 1073 1112 1160 1125 1031 1073 1055 896 780 729 832 899 830
983 956 1078 1089 1047 959 1058 1102 1150 1317 1448 1543 1521 1440 1549 1698 1727 1652 1565 1502 1406 1218 1391 993 966 869 760 709 801 857 880 926 1017 1254 1431 1517 1547 1522 1481 1472 1464 1455 1449 1479 1484 1443 1388 1367 1416 1663 2450 3044 3212 3237 3116 2833 2530 2250 2041 2136 1999 1589 1457 1285 1121 1009 947 892 883 968 1050 1096 1140 1136 1132 1066 1044 979 857 789 785 802 768 741 752
745 704 732 731 683 746 798 902 954 1098 1167 1243 1265 1327 1511 1541 1530 1558 1584 1578 1503 1343 1042 1139 1038 958 866 757 745 824 882 870 887 894 994 1159 1347 1465 1463 1433 1396 1354 1345 1356 1370 1390 1429 1436 1428 1402 1405 1433 1458 1469 1449 1487 1569 1727 1847 1911 1904 1825 1750 1536 1366 1185 1020 901 846 840 874 955 964 972 938 874 776 627 478 602 640 596 544 513 562
576 635 595 530 645 657 887 938 1014 1103 1107 1097 1109 1216 1351 1378 1360 1307 1506 1877 1945 1719 1574 1382 1272 1322 1218 900 774 738 883 1006 1021 983 965 986 1018 1086 1229 1320 1331 1320 1332 1345 1357 1367 1358 1327 1299 1287 1294 1660 2185 1581 1285 1297 1240 1111 1068 1020 945 881 797 880 1117 1136 1024 917 849 820 809 797 820 848 831 767 657 448 374 223 154 158 249 414 546
774 800 720 673 598 698 750 842 898 987 1059 1135 1163 1112 1080 1139 1188 1191 1283 1619 1904 1957 1853 1710 1602 1481 1356 1180 1041 940 817 833 935 1069 1146 1177 1190 1194 1194 1187 1177 1224 1269 1274 1273 1278 1297 1306 1315 1315 1292 1260 1182 1080 1015 1014 1015 1012 980 894 804 827 808 779 310 279 519 819 830 779 769 767 784 747 745 710 640 569 229 78 22 14 164 490 588
550 541 585 596 591 549 624 722 747 744 765 768 797 780 971 1027 1068 1168 1191 1246 1460 1583 1556 1649 1712 1750 1665 1526 1429 1365 1308 1154 943 854 921 997 1057 1100 1154 1191 1215 1223 1224 1248 1309 1364 1387 1401 1405 1396 1384 1378 1374 1321 1201 981 823 809 816 842 860 843 783 320 82 90 64 105 309 543 586 612 611 616 380 270 174 203 133 155 495 496 505 563 691
531 500 476 491 482 497 569 718 813 776 771 748 693 620 601 640 729 842 1032 1104 1224 1346 1465 1473 1483 1492 1494 1598 1664 1645 1665 1602 1418 1140 954 950 915 973 1002 1008 1038 1068 1101 1151 1207 1231 1279 1335 1358 1360 1347 1336 1331 1334 1319 1257 1167 1048 882 776 760 742 714 542 82 76 298 468 339 126 206 255 222 257 261 440 634 641 659 693 664 578 566 648 721
438 419 459 476 457 424 417 412 506 592 643 681 746 699 571 482 484 500 634 746 839 930 1203 1345 1390 1386 1355 1294 1288 1321 1284 1338 1333 1494 1553 1455 1259 1111 996 917 911 966 1019 1058 1113 1148 1172 1184 1148 1193 1231 1250 1249 1244 1240 1225 1199 1175 1136 1056 931 747 598 150 93 212 525 559 533 443 566 645 753 815 843 846 736 860 873 812 703 599 551 554 629
423 435 420 431 400 387 388 407 435 442 418 431 463 491 494 474 426 442 502 503 567 728 735 935 1130 1140 1254 1296 1275 1219 1114 1152 1180 1208 1292 1388 1513 1516 1363 1229 1136 1064 1031 1006 964 926 938 1017 1558 1282 1212 1221 1200 1120 1115 1119 1094 1060 1052 1033 997 944 881 792 690 539 634 697 737 754 811 850 903 996 1109 1147 1075 879 675 601 183 304 485 592 726
422 418 393 366 336 314 337 418 464 469 445 432 439 452 458 433 427 410 419 419 430 520 598 697 758 848 860 868 1101 1224 1234 1103 1030 945 956 972 1129 1228 1290 1354 1373 1365 1348 1338 1316 1303 1284 1248 1236 1253 1318 1376 1459 1501 1511 1456 1345 1201 1061 894 830 763 805 792 671 607 739 836 865 918 1044 1111 1161 1242 1353 1377 1364 1237 1074 941 850 813 919 1040 1130
319 328 320 295 266 253 270 271 298 359 400 413 399 375 363 352 360 399 447 434 411 405 513 604 690 711 715 756 862 1004 1095 1120 1067 994 871 778 780 878 1110 1112 1105 1192 1261 1300 1328 1347 1336 1333 1305 1242 1160 1109 1102 1153 1224 1296 1368 1412 1358 1235 1032 905 786 747 771 746 801 799 982 1126 1216 1256 1299 1388 1518 1598 1630 1568 1466 1348 1262 1178 1225 1270 1308
177 174 159 146 126 92 94 139 182 233 264 284 313 343 349 335 312 306 330 374 419 422 415 466 565 647 670 720 734 766 796 857 868 861 807 752 890 1067 1094 1289 1385 1392 1346 1306 1258 1228 1210 1225 1238 1265 1240 1184 1091 1051 1112 1210 1257 1267 1249 1234 1183 1071 946 881 866 888 947 1042 1196 1283 1323 1380 1464 1535 1662 1744 1781 1736 1671 1602 1541 1490 1416 1436 1437
126 78 0 66 109 102 83 108 159 172 179 183 183 211 205 217 235 236 235 248 297 358 426 477 502 534 598 659 684 667 685 692 919 912 843 811 920 1253 1374 1192 1095 1063 1090 1161 1169 1248 1292 1231 1224 1130 1146 1168 1145 1060 1046 1124 1218 1275 1320 1258 1136 1051 1003 956 974 1028 1113 1237 1306 1325 1442 1543 1638 1727 1783 1832 1808 1778 1725 1676 1624 1580 1582 1541 1547
134 150 147 124 72 74 79 119 143 179 180 157 120 107 48 51 55 118 120 152 182 228 300 372 416 434 446 470 492 490 499 724 787 587 569 540 581 908 1258 1206 1050 977 806 668 681 848 1001 1123 1201 1255 1260 1223 1265 1321 1335 1258 1167 1156 1190 1232 1286 1231 1216 1232 1253 1216 1222 1276 1290 1384 1514 1647 1729 1810 1867 1858 1851 1777 1749 1712 1685 1645 1614 1599 1587
0 44 85 100 17 0 0 11 68 90 106 0 0 0 0 0 0 0 0 0 0 0 0 150 258 328 353 367 362 333 334 293 334 399 392 410 485 542 571 715 1084 1008 683 783 728 495 481 547 731 974 1042 1133 1170 1255 1471 1660 1750 1712 1498 1338 1286 1290 1276 1203 1214 1258 1282 1364 1443 1436 1570 1638 1705 1775 1812 1680 1503 1478 1485 1510 1556 1596 1600 1594 1588
76 58 72 118 97 10 0 0 0 0 0 0 0 0 0 0 0 0 0 0 0 0 0 0 0 0 14 50 50 165 206 289 332 309 284 335 438 460 420 524 592 703 590 555 498 450 422 406 357 518 756 882 986 1067 1134 1313 1478 1643 1779 1816 1737 1533 1449 1420 1375 1395 1417 1484 1546 1572 1613 1634 1664 1661 1590 1526 1557 1533 1496 1441 1419 1425 1407 1347 1352
0 0 103 80 0 0 0 0 0 0 0 0 0 0 0 0 0 0 0 0 0 0 0 0 0 0 0 0 0 0 18 205 276 253 93 0 15 0 24 119 178 204 295 338 371 377 387 383 359 300 112 31 633 966 1100 1231 1345 1454 1548 1621 1676 1771 1730 1563 1498 1544 1455 1492 1527 1525 1554 1509 1495 1527 1464 1520 1621 1671 1596 1566 1597 1569 1593 1635 1605
0 0 0 0 0 0 0 0 0 0 0 0 0 0 0 0 0 0 0 0 0 0 0 0 0 0 0 0 0 0 0 0 0 0 0 228 291 262 0 32 0 0 0 0 0 0 0 24 0 0 0 0 0 0 74 598 926 1146 1240 1354 1407 1309 1289 1412 1512 1415 1338 1375 1353 1356 1446 1440 1403 1523 1676 1783 1799 1703 1622 1625 1572 1516 1462 1444 1357
0 0 0 0 0 0 0 0 0 0 0 0 0 0 0 0 0 0 0 0 0 0 0 0 0 0 0 0 0 0 0 0 0 0 0 0 92 265 295 115 0 0 0 0 0 0 0 0 0 0 0 0 0 0 0 0 44 234 345 547 902 1176 1249 1225 1203 1288 1380 1393 1394 1426 1434 1488 1594 1682 1650 1622 1590 1572 1492 1343 1327 1329 1361 1298 1224
0 0 0 0 0 0 0 0 0 0 0 0 0 0 0 0 0 0 0 0 0 0 0 0 0 0 0 0 0 0 0 0 0 0 0 0 0 0 0 10 0 0 0 0 1 0 0 0 0 0 0 0 0 0 0 0 0 3 69 195 230 298 463 689 881 936 993 968 1008 979 970 962 1041 1260 1427 1506 1564 1580 1497 1413 1437 1404 1429 1343 1338
0 0 0 0 0 0 0 0 0 0 0 0 0 0 0 0 0 0 0 0 0 0 0 0 0 0 0 0 0 0 0 0 0 0 0 0 0 0 0 0 0 0 0 0 0 0 0 0 0 0 0 0 0 0 0 0 0 0 0 10 42 126 305 278 406 446 492 540 583 624 667 722 793 868 1017 1168 1372 1520 1554 1528 1499 1478 1485 1468 1453
0 0 0 0 0 0 0 0 0 0 0 0 0 0 0 0 0 0 0 0 0 0 0 0 0 0 0 0 0 0 0 0 0 0 0 0 0 0 0 0 0 0 0 0 0 0 0 0 0 0 0 0 0 0 0 0 0 0 0 0 0 9 24 62 103 60 9 357 387 423 474 537 618 715 836 963 1057 1110 1278 1437 1482 1566 1608 1573 1494
0 0 0 0 4 4 0 0 0 0 0 0 0 0 0 0 0 0 0 0 0 0 0 0 0 0 0 0 0 0 0 0 0 0 0 0 0 0 0 0 0 0 0 0 0 0 0 0 0 0 0 0 0 0 0 0 0 0 0 0 0 0 0 244 364 373 393 328 247 300 362 438 528 611 691 761 829 895 982 1185 1264 1356 1474 1581 1633
0 0 0 2 2 0 0 0 0 0 0 0 0 0 0 0 0 0 0 0 0 0 0 0 0 0 0 0 0 0 0 0 0 0 0 0 0 0 0 0 0 0 0 0 0 0 0 0 0 0 0 0 0 0 0 0 0 0 10 5 8 0 0 0 48 376 522 618 627 689 699 632 532 548 634 687 714 780 835 885 1014 969 1019 1135 1240
0 0 0 0 0 0 0 0 0 0 0 0 0 0 0 0 0 0 0 0 0 0 0 0 0 0 0 0 0 0 0 0 0 0 0 0 0 0 0 0 0 0 0 0 0 0 0 0 0 0 0 0 0 0 0 0 1 4 13 29 42 78 147 181 292 400 465 559 646 804 909 973 1027 1002 944 879 826 801 813 850 862 881 924 970 1003
0 0 0 0 0 0 0 0 0 0 0 0 0 0 0 2 9 5 1 0 0 0 0 0 0 0 0 0 0 0 0 0 0 0 0 0 0 0 0 0 0 0 0 0 0 0 0 0 0 0 0 0 1 6 6 13 18 17 10 4 1 4 5 17 108 41 337 522 661 798 915 939 992 992 960 968 982 1034 1099 1113 1118 1085 1024 928 930
0 0 0 0 0 0 0 0 0 0 0 0 1 6 10 9 5 3 0 0 1 0 1 0 1 0 0 0 0 0 0 0 0 0 0 0 0 0 0 0 0 0 0 0 0 0 0 0 1 8 10 8 15 24 32 42 32 21 20 14 12 20 30 71 155 141 13 50 515 579 619 687 731 722 802 818 875 876 907 958 1039 1129 1203 1272 1340
0 0 0 0 0 0 0 0 0 0 2 3 1 0 2 3 5 2 1 1 7 11 10 5 0 0 0 2 1 0 0 0 0 0 0 0 0 0 0 0 0 0 0 0 0 0 0 0 0 8 24 28 32 42 47 49 34 14 3 0 0 1 3 16 56 144 13 155 526 660 688 671 639 655 656 695 838 903 907 899 910 968 1090 1256 1345
0 0 0 0 0 0 0 0 0 1 1 1 0 0 0 1 4 10 12 11 15 14 5 1 5 1 0 0 10 9 3 0 0 0 0 0 0 0 0 0 0 0 0 0 0 0 0 0 0 9 35 45 54 72 67 48 27 2 0 0 0 0 0 0 0 3 27 9 430 582 671 687 660 614 655 678 834 976 866 800 892 1112 1205 1222 1254
0 0 0 0 0 0 0 2 0 1 1 4 1 5 9 12 15 16 16 14 10 6 7 2 0 2 3 4 1 7 2 0 0 0 0 0 0 0 0 0 0 0 0 0 0 0 0 0 0 17 40 42 42 45 43 19 2 2 2 1 0 0 0 0 0 0 0 0 83 200 499 646 677 662 713 798 662 523 592 700 746 793 1045 1234 1308
0 0 0 0 0 1 2 4 6 6 6 6 4 10 17 15 10 10 9 8 8 9 8 9 9 6 5 6 6 4 1 2 2 2 1 0 0 0 0 0 0 0 0 0 0 0 0 0 4 23 42 52 52 36 15 4 0 0 0 0 0 0 0 0 0 0 0 0 0 0 0 167 550 671 807 808 754 626 537 549 624 787 915 1178 1319
0 0 1 2 2 2 8 10 10 7 13 16 13 7 3 9 10 11 7 8 10 12 14 16 14 15 15 12 5 0 0 0 0 0 0 0 0 0 0 0 0 0 0 0 0 0 10 24 36 42 46 49 46 34 15 0 0 0 0 0 0 0 0 0 0 0 0 0 0 0 0 1 4 10 16 18 22 27 46 201 443 664 998 1158 1187
0 0 1 3 8 11 10 8 8 8 4 4 2 5 9 9 7 8 9 12 17 21 20 15 8 2 0 0 1 3 3 3 5 6 4 2 0 0 0 0 0 0 0 2 6 14 23 33 46 51 47 30 14 13 19 16 3 0 0 0 0 0 0 0 0 0 0 1 2 5 6 6 7 8 13 15 24 30 32 52 104 262 640 1002 1130
10 5 4 5 4 3 3 4 7 8 7 6 5 4 4 6 4 8 8 12 9 8 4 2 2 6 10 10 9 5 2 4 7 9 7 6 4 3 1 0 0 0 0 12 21 17 20 30 38 40 25 9 8 14 26 21 10 3 2 4 0 0 0 0 0 0 0 4 6 6 8 10 17 19 14 14 17 23 28 28 24 41 218 571 950
4 4 4 9 4 2 1 1 2 4 10 8 7 6 6 6 4 3 3 2 1 3 5 5 8 8 6 2 0 0 1 1 0 0 0 3 4 4 2 0 0 0 0 0 0 8 13 17 23 24 18 10 9 14 17 5 2 0 1 4 5 0 0 0 0 0 0 3 4 5 4 4 5 5 5 6 11 16 19 27 33 34 66 122 335
1 3 1 0 1 0 0 1 4 5 6 11 7 4 10 9 10 11 12 10 12 14 15 14 13 13 12 7 6 9 6 3 3 2 0 0 0 1 1 0 0 0 0 0 0 0 3 8 16 24 28 25 22 16 10 5 0 0 1 0 0 0 0 0 0 0 2 4 4 4 4 3 2 3 2 2 3 5 8 12 15 22 23 23 50
0 0 0 0 1 0 0 2 6 9 15 15 14 12 16 16 18 18 12 14 18 17 15 16 14 13 15 9 8 9 3 0 0 0 0 0 0 0 0 0 0 0 1 1 0 4 8 8 7 9 14 15 19 24 20 13 9 7 1 0 0 0 0 0 0 0 0 1 3 4 4 3 2 3 4 4 3 4 4 3 3 6 14 18 19
0 0 0 0 0 0 2 5 6 6 13 16 9 5 6 5 6 10 13 12 11 13 25 30 28 28 31 31 27 19 13 8 2 0 0 0 0 1 4 4 4 6 6 4 6 10 13 13 12 10 6 5 4 8 15 17 6 0 0 0 0 0 0 0 0 0 0 0 1 2 3 3 3 4 3 3 2 2 3 4 3 4 8 15 16
0 0 0 1 4 4 3 10 15 30 10 5 5 6 7 8 5 7 9 12 15 20 38 40 37 38 38 32 26 17 13 12 15 18 16 8 4 1 0 0 1 2 4 7 11 13 13 16 18 19 18 14 11 10 8 5 3 3 1 0 0 0 0 0 0 0 0 0 0 0 2 2 3 3 3 3 2 3 3 2 3 5 11 15 15
0 0 1 2 5 6 11 14 20 12 7 14 15 10 9 8 11 17 24 26 24 31 33 40 40 42 40 35 30 20 10 4 3 4 4 5 2 0 0 1 2 3 3 3 5 8 10 10 10 10 10 13 13 10 6 2 0 0 0 0 0 0 0 0 0 0 0 0 0 0 0 1 2 2 2 2 2 2 2 4 5 5 7 9 7
0 0 4 6 6 5 10 13 6 9 11 16 21 18 16 22 30 26 30 28 29 31 29 34 36 32 32 31 27 19 9 4 3 7 10 6 4 2 2 1 2 4 5 4 3 3 5 6 7 9 10 12 12 8 2 0 0 0 0 0 0 0 0 0 0 0 0 0 0 0 0 0 1 1 2 2 1 2 4 3 5 6 6 4 2
1 2 3 4 5 6 5 2 7 12 15 17 18 25 29 28 27 26 22 25 28 31 36 29 25 29 38 44 34 26 18 7 2 3 4 8 8 15 14 12 12 7 8 9 8 6 7 11 12 14 12 11 6 1 0 0 0 0 0 0 0 0 0 0 0 0 0 0 0 0 0 0 1 1 1 1 1 2 4 5 6 5 5 3 1
Wind_Speed
13 14 15 14 14 13 12 14 14 14 12 10 8 6 6 7 7 7 10 9 9 8 7 7 7 7 7 7 6 6 6 6 7 8 7 7 7 7 8 8 9 10 10 11 11 11 11 12 12 12 11 10 9 9 10 10 10 9 9 9 9 9 10 10 8 4 6 8 8 7 8 10 9 12 10 9 9 9 10 11 12 12 13 13 14
17 21 19 16 16 16 17 17 17 17 16 15 12 10 9 8 8 9 9 9 10 8 7 7 8 8 8 8 7 7 7 7 7 8 7 7 7 8 8 8 8 9 11 11 12 12 12 12 13 13 13 12 11 11 10 11 11 11 10 10 8 8 8 10 9 10 6 9 9 10 9 12 11 12 12 10 9 10 8 8 9 11 12 11 12
24 24 20 17 17 17 16 14 14 15 16 16 14 12 10 10 10 9 9 9 10 9 8 7 7 8 8 8 8 8 7 7 8 9 8 8 7 8 8 9 8 8 9 9 10 12 13 13 13 14 15 14 13 13 13 12 13 12 10 11 10 9 11 11 13 11 9 8 12 12 12 13 14 10 10 12 12 12 11 9 9 8 9 10 10
30 26 23 21 19 18 17 15 14 14 16 17 16 14 12 11 12 11 11 12 11 10 10 9 9 8 8 9 9 9 8 8 7 8 8 8 8 8 9 10 10 10 9 9 10 12 12 13 12 13 14 13 13 14 14 13 13 13 12 12 13 11 12 15 13 13 14 13 12 14 13 13 11 12 11 10 10 9 11 10 9 8 7 7 10
29 25 22 22 21 20 19 18 16 16 15 16 17 17 16 15 14 12 11 11 13 13 13 12 11 10 8 8 9 9 9 9 8 7 8 9 9 10 10 11 11 11 10 10 10 11 12 12 12 13 14 13 14 14 13 13 13 14 13 13 13 13 14 15 14 15 15 13 11 13 13 13 13 11 12 10 9 10 10 9 7 6 6 8 10
27 24 23 23 22 20 20 20 20 17 15 15 16 18 18 17 16 16 14 11 11 12 12 13 13 10 9 7 7 8 9 10 9 8 8 9 10 10 11 11 11 11 11 11 11 12 11 11 11 13 14 13 12 13 13 13 14 14 13 13 13 14 14 14 16 16 15 12 13 11 13 11 11 12 13 13 11 8 5 4 6 9 9 5 6
17 20 23 24 25 24 22 21 21 20 17 15 17 18 18 18 17 16 16 15 13 12 12 12 13 12 10 9 7 7 8 10 10 9 9 10 10 11 11 11 12 12 12 12 12 12 12 12 12 12 12 12 12 12 12 12 12 12 12 12 14 14 13 12 14 14 14 12 12 13 11 11 14 11 14 15 12 12 9 5 5 8 11 11 7
12 19 24 27 27 26 24 24 21 20 20 19 18 18 19 20 18 16 16 15 15 15 13 12 12 12 11 11 9 8 8 10 10 10 11 10 11 11 11 11 12 13 13 13 13 13 13 13 12 12 12 12 12 11 12 10 12 12 11 13 13 14 12 12 13 13 13 13 13 11 14 13 12 13 12 12 9 10 12 10 6 5 5 9 12
15 18 21 28 32 31 27 25 24 23 22 21 20 20 21 22 21 20 18 17 16 16 16 15 13 12 12 12 12 11 9 9 11 11 11 11 11 11 11 11 12 13 14 14 14 14 14 14 14 13 13 10 9 10 11 12 13 11 11 13 13 13 12 12 12 12 12 13 11 14 13 11 11 11 8 10 11 10 11 12 8 6 7 7 7
12 13 16 21 27 28 25 24 26 26 25 26 26 26 25 25 23 22 21 19 18 17 17 17 15 13 12 12 13 13 12 12 10 7 10 12 12 12 12 12 13 13 14 14 15 16 15 15 14 10 8 7 8 8 8 9 9 12 12 13 13 14 13 12 12 13 13 12 12 13 11 10 11 13 13 13 14 12 8 9 9 6 8 7 10
19 20 21 19 20 24 25 25 25 27 26 27 27 27 26 27 26 25 25 23 21 19 19 19 19 16 14 13 14 14 13 13 8 8 8 8 13 15 14 14 15 14 14 15 14 15 16 16 16 13 12 11 12 9 10 10 10 9 8 9 12 15 14 13 13 15 15 13 13 15 13 10 11 14 14 12 13 12 10 10 9 9 10 9 8
26 23 20 18 17 19 20 22 25 26 26 26 27 28 30 30 29 27 26 25 23 22 20 20 21 21 19 17 15 15 15 12 9 10 11 10 13 15 16 16 16 16 15 15 15 16 16 16 17 17 17 15 15 15 13 11 10 10 10 11 11 11 13 15 13 14 16 14 12 13 15 13 11 14 14 15 10 10 10 12 11 10 9 10 12
24 20 19 19 19 17 18 19 21 25 26 27 28 29 30 30 29 28 27 26 25 25 23 24 23 23 23 21 18 17 18 14 12 12 13 13 13 14 16 17 17 16 17 16 17 17 18 18 18 18 18 13 15 16 17 16 13 11 11 12 13 13 12 11 13 14 15 15 14 11 14 15 13 13 18 17 16 12 10 11 13 13 14 13 13
25 24 23 21 20 19 19 18 18 21 23 24 25 27 29 30 29 28 27 29 30 29 29 28 27 26 24 23 23 24 23 22 18 15 15 15 14 16 17 16 16 16 17 17 18 18 19 19 19 19 20 20 19 19 19 18 18 19 19 20 20 18 16 15 14 12 14 15 14 13 12 19 14 12 13 19 17 11 10 nan nan nan 15 15 18
26 25 25 23 23 22 21 19 17 17 18 19 22 25 27 29 31 30 30 30 32 33 33 32 30 28 26 25 25 26 26 30 26 25 24 22 20 20 20 20 19 18 18 19 19 18 19 20 20 19 19 20 21 21 21 20 20 19 18 18 19 20 19 19 nan nan nan 18 16 13 11 14 15 13 12 15 17 15 15 14 16 19 19 21 19
29 28 29 28 27 25 23 21 20 19 19 18 19 20 22 25 28 30 31 32 33 34 35 35 35 33 30 28 27 27 27 30 29 26 24 24 25 24 23 22 20 20 20 20 20 20 20 20 20 19 19 19 17 16 19 22 22 19 17 17 17 18 18 17 nan nan 17 18 17 15 14 13 12 14 14 16 17 20 21 22 23 24 23 19 17
32 32 32 32 31 28 27 27 27 26 24 24 24 22 20 19 21 23 27 28 30 29 30 31 32 33 33 32 31 30 30 30 29 27 26 27 27 25 24 23 21 21 20 21 22 22 21 21 21 20 20 19 17 16 17 21 22 19 17 16 16 16 15 17 nan 13 12 12 11 10 9 7 6 6 8 10 16 22 26 23 20 25 22 17 17
33 33 34 33 32 30 29 30 30 29 28 28 26 24 22 20 19 19 19 21 24 24 23 24 25 28 31 33 33 33 32 33 34 32 30 28 29 26 24 21 20 20 21 22 23 23 22 18 18 21 20 19 17 17 17 23 21 18 17 16 15 13 14 18 20 19 17 15 12 10 9 8 7 7 8 11 14 26 28 21 20 28 23 22 18
35 34 33 33 33 32 32 32 32 31 31 30 28 27 24 22 22 21 19 19 19 20 21 19 19 21 27 30 32 31 31 32 34 32 30 28 31 30 26 22 21 21 22 22 23 23 23 23 19 19 20 19 17 18 19 23 21 18 17 16 14 12 14 20 22 20 20 20 18 18 16 15 16 17 17 15 18 27 29 24 23 26 22 20 21
36 35 36 37 36 36 35 34 32 32 32 31 30 28 26 25 25 24 23 22 21 20 19 19 18 19 23 26 27 28 29 29 30 31 32 30 30 30 28 24 21 21 22 22 23 24 25 25 25 22 19 18 17 17 18 20 22 19 19 17 14 13 20 25 24 23 21 21 20 21 19 19 20 22 23 24 26 31 30 27 26 27 25 22 23
40 40 40 41 40 nan nan 36 35 34 32 31 29 29 29 28 26 26 25 26 26 25 23 21 20 20 21 22 23 24 26 26 27 26 29 31 29 28 26 23 21 22 23 24 24 25 26 26 27 25 23 26 27 27 26 25 25 23 21 19 17 18 26 25 23 23 25 25 24 23 22 22 23 24 25 26 27 30 32 30 29 30 29 26 24
42 nan nan nan 42 42 nan 39 38 37 35 34 34 33 31 30 30 29 28 28 29 29 29 27 25 25 24 24 23 24 24 24 26 27 27 29 28 22 24 23 23 23 24 25 26 27 28 28 28 31 35 34 32 32 31 31 30 29 24 20 18 21 23 25 26 27 26 27 26 25 24 25 26 27 28 29 29 31 32 31 32 32 31 30 28
45 45 45 45 nan nan nan 42 41 40 40 38 37 36 nan nan nan 33 34 33 33 32 32 31 30 31 30 29 28 30 30 30 32 30 30 31 30 25 20 21 27 27 26 26 28 29 30 31 30 32 32 30 27 26 26 26 29 30 26 25 24 23 27 28 28 29 30 30 30 28 27 29 29 29 31 31 31 33 32 32 32 34 33 31 30
nan nan nan nan nan nan nan nan nan nan 43 nan nan nan nan nan nan nan nan nan nan nan nan 33 33 34 34 32 32 32 33 33 34 34 31 33 33 30 26 23 26 27 29 28 29 29 30 31 32 31 29 28 27 27 27 27 28 25 25 26 28 31 32 32 32 33 34 32 32 30 29 30 32 31 32 32 32 32 32 32 32 33 34 33 31
nan nan nan 47 nan nan nan nan nan nan nan nan nan nan nan nan nan nan nan nan nan nan nan nan nan nan nan nan nan 34 34 35 35 35 35 35 34 31 29 28 27 28 28 28 29 29 29 28 27 27 28 28 28 29 30 28 26 27 27 28 31 35 35 35 35 36 34 32 32 31 29 30 31 31 32 33 32 32 33 32 32 32 33 33 31
nan nan 50 nan nan nan nan nan nan nan nan nan nan nan nan nan nan nan nan nan nan nan nan nan nan nan nan nan nan nan nan 36 36 37 nan nan nan nan nan 31 29 26 25 25 23 23 24 24 25 26 27 nan 32 34 35 34 33 32 31 33 38 37 39 38 37 35 32 31 31 30 29 31 32 32 33 34 33 31 33 33 32 31 36 36 32
nan nan nan nan nan nan nan nan nan nan nan nan nan nan nan nan nan nan nan nan nan nan nan nan nan nan nan nan nan nan nan nan nan nan nan 38 38 37 nan nan nan nan nan nan nan nan nan nan nan nan nan nan nan nan nan 33 36 37 38 40 42 44 40 36 33 33 32 32 31 31 31 31 33 33 33 35 33 32 36 36 34 31 35 39 35
nan nan nan nan nan nan nan nan nan nan nan nan nan nan nan nan nan nan nan nan nan nan nan nan nan nan nan nan nan nan nan nan nan nan nan nan nan 37 36 36 nan nan nan nan nan nan nan nan nan nan nan nan nan nan nan nan nan 36 38 40 43 41 35 32 33 34 33 33 33 33 31 31 30 30 32 33 32 32 37 40 37 33 36 41 37
nan nan nan nan nan nan nan nan nan nan nan nan nan nan nan nan nan nan nan nan nan nan nan nan nan nan nan nan nan nan nan nan nan nan nan nan nan nan nan nan nan nan nan nan nan nan nan nan nan nan nan nan nan nan nan nan nan nan nan 38 40 40 37 37 35 33 34 35 33 32 30 31 29 31 32 31 29 29 35 38 37 35 36 41 35
nan nan nan nan nan nan nan nan nan nan nan nan nan nan nan nan nan nan nan nan nan nan nan nan nan nan nan nan nan nan nan nan nan nan nan nan nan nan nan nan nan nan nan nan nan nan nan nan nan nan nan nan nan nan nan nan nan nan nan nan nan 38 38 36 35 34 34 33 32 31 30 30 29 31 32 30 27 28 33 37 34 36 35 35 33
nan nan nan nan nan nan nan nan nan nan nan nan nan nan nan nan nan nan nan nan nan nan nan nan nan nan nan nan nan nan nan nan nan nan nan nan nan nan nan nan nan nan nan nan nan nan nan nan nan nan nan nan nan nan nan nan nan nan nan nan nan nan nan nan 36 nan nan 33 31 30 30 29 28 29 29 28 27 28 31 35 34 34 33 32 31
nan nan nan nan nan nan nan nan nan nan nan nan nan nan nan nan nan nan nan nan nan nan nan nan nan nan nan nan nan nan nan nan nan nan nan nan nan nan nan nan nan nan nan nan nan nan nan nan nan nan nan nan nan nan nan nan nan nan nan nan nan nan nan 38 38 37 36 34 33 32 31 31 30 29 28 27 28 28 29 30 33 33 33 33 31
nan nan nan nan nan nan nan nan nan nan nan nan nan nan nan nan nan nan nan nan nan nan nan nan nan nan nan nan nan nan nan nan nan nan nan nan nan nan nan nan nan nan nan nan nan nan nan nan nan nan nan nan nan nan nan nan nan nan nan nan nan nan nan nan nan 38 36 35 35 34 33 33 33 31 30 29 29 28 29 30 32 34 34 33 33
nan nan nan nan nan nan nan nan nan nan nan nan nan nan nan nan nan nan nan nan nan nan nan nan nan nan nan nan nan nan nan nan nan nan nan nan nan nan nan nan nan nan nan nan nan nan nan nan nan nan nan nan nan nan nan nan nan nan nan nan nan nan 41 41 41 39 38 37 37 35 34 33 33 33 32 31 31 30 29 30 33 34 35 35 34
nan nan nan nan nan nan nan nan nan nan nan nan nan nan nan nan nan nan nan nan nan nan nan nan nan nan nan nan nan nan nan nan nan nan nan nan nan nan nan nan nan nan nan nan nan nan nan nan nan nan nan nan nan nan nan nan nan nan nan nan nan nan nan nan 45 nan 42 40 38 37 36 35 35 36 35 33 31 30 30 31 32 34 34 34 35
nan nan nan nan nan nan nan nan nan nan nan nan nan nan nan nan nan nan nan nan nan nan nan nan nan nan nan nan nan nan nan nan nan nan nan nan nan nan nan nan nan nan nan nan nan nan nan nan nan nan nan nan nan nan nan nan nan nan nan nan nan nan nan nan 51 49 nan nan 43 40 39 39 39 39 38 35 31 30 30 31 31 32 33 33 33
nan nan nan nan nan nan nan nan nan nan nan nan nan nan nan nan nan nan nan nan nan nan nan nan nan nan nan nan nan nan nan nan nan nan nan nan nan nan nan nan nan nan nan nan nan nan nan nan nan nan nan nan nan nan nan nan nan nan nan nan nan nan nan nan nan 50 nan 47 45 42 41 41 41 41 40 37 34 33 33 33 33 32 31 30 31
nan nan nan nan nan nan nan nan nan nan nan nan nan nan nan nan nan nan nan nan nan nan nan nan nan nan nan nan nan nan nan nan nan nan nan nan nan nan nan nan nan nan nan nan nan nan nan nan nan nan nan nan nan nan nan nan nan nan nan nan nan nan nan nan nan nan nan nan 45 43 43 43 43 43 42 39 37 36 35 35 35 33 32 32 33
nan nan nan nan nan nan nan nan nan nan nan nan nan nan nan nan nan nan nan nan nan nan nan nan nan nan nan nan nan nan nan nan nan nan nan nan nan nan nan nan nan nan nan nan nan nan nan nan nan nan nan nan nan nan nan nan nan nan nan nan nan nan nan nan nan nan nan nan nan 45 45 45 44 44 43 41 39 39 39 37 37 36 34 34 34
nan nan nan nan nan nan nan nan nan nan nan nan nan nan nan nan nan nan nan nan nan nan nan nan nan nan nan nan nan nan nan nan nan nan nan nan nan nan nan nan nan nan nan nan nan nan nan nan nan nan nan nan nan nan nan nan nan nan nan nan nan nan nan nan nan nan nan nan nan nan nan 46 46 46 45 43 43 43 42 39 38 37 36 35 35
nan nan nan nan nan nan nan nan nan nan nan nan nan nan nan nan nan nan nan nan nan nan nan nan nan nan nan nan nan nan nan nan nan nan nan nan nan nan nan nan nan nan nan nan nan nan nan nan nan nan nan nan nan nan nan nan nan nan nan nan nan nan nan nan nan nan nan nan nan nan nan nan nan nan nan nan nan nan nan 42 39 39 38 38 37
nan nan nan nan nan nan nan nan nan nan nan nan nan nan nan nan nan nan nan nan nan nan nan nan nan nan nan nan nan nan nan nan nan nan nan nan nan nan nan nan nan nan nan nan nan nan nan nan nan nan nan nan nan nan nan nan nan nan nan nan nan nan nan nan nan nan nan nan nan nan nan nan nan nan nan nan nan nan nan nan 44 42 41 40 40
nan nan nan nan nan nan nan nan nan nan nan nan nan nan nan nan nan nan nan nan nan nan nan nan nan nan nan nan nan nan nan nan nan nan nan nan nan nan nan nan nan nan nan nan nan nan nan nan nan nan nan nan nan nan nan nan nan nan nan nan nan nan nan nan nan nan nan nan nan nan nan nan nan nan nan nan nan nan nan nan nan nan 44 42 43
nan nan nan nan nan nan nan nan nan nan nan nan nan nan nan nan nan nan nan nan nan nan nan nan nan nan nan nan nan nan nan nan nan nan nan nan nan nan nan nan nan nan nan nan nan nan nan nan nan nan nan nan nan nan nan nan nan nan nan nan nan nan nan nan nan nan nan nan nan nan nan nan nan nan nan nan nan nan nan nan nan nan nan 46 45
nan nan nan nan nan nan nan nan nan nan nan nan nan nan nan nan nan nan nan nan nan nan nan nan nan nan nan nan nan nan nan nan nan nan nan nan nan nan nan nan nan nan nan nan nan nan nan nan nan nan nan nan nan nan nan nan nan nan nan nan nan nan nan nan nan nan nan nan nan nan nan nan nan nan nan nan nan nan nan nan nan nan nan nan nan
nan nan nan nan nan nan nan nan nan nan nan nan nan nan nan nan nan nan nan nan nan nan nan nan nan nan nan nan nan nan nan nan nan nan nan nan nan nan nan nan nan nan nan nan nan nan nan nan nan nan nan nan nan nan nan nan nan nan nan nan nan nan nan nan nan nan nan nan nan nan nan nan nan nan nan nan nan nan nan nan nan nan nan nan nan
nan nan nan nan nan nan nan nan nan nan nan nan nan nan nan nan nan nan nan nan nan nan nan nan nan nan nan nan nan nan nan nan nan nan nan nan nan nan nan nan nan nan nan nan nan nan nan nan nan nan nan nan nan nan nan nan nan nan nan nan nan nan nan nan nan nan nan nan nan nan nan nan nan nan nan nan nan nan nan nan nan nan nan nan nan
nan nan nan nan nan nan nan nan nan nan nan nan nan nan nan nan nan nan nan nan nan nan nan nan nan nan nan nan nan nan nan nan nan nan nan nan nan nan nan nan nan nan nan nan nan nan nan nan nan nan nan nan nan nan nan nan nan nan nan nan nan nan nan nan nan nan nan nan nan nan nan nan nan nan nan nan nan nan nan nan nan nan nan nan nan
nan nan nan nan nan nan nan nan nan nan nan nan nan nan nan nan nan nan nan nan nan nan nan nan nan nan nan nan nan nan nan nan nan nan nan nan nan nan nan nan nan nan nan nan nan nan nan nan nan nan nan nan nan nan nan nan nan nan nan nan nan nan nan nan nan nan nan nan nan nan nan nan nan nan nan nan nan nan nan nan nan nan nan nan nan
nan nan nan nan nan nan nan nan nan nan nan nan nan nan nan nan nan nan nan nan nan nan nan nan nan nan nan nan nan nan nan nan nan nan nan nan nan nan nan nan nan nan nan nan nan nan nan nan nan nan nan nan nan nan nan nan nan nan nan nan nan nan nan nan nan nan nan nan nan nan nan nan nan nan nan nan nan nan nan nan nan nan nan nan nan
nan nan nan nan nan nan nan nan nan nan nan nan nan nan nan nan nan nan nan nan nan nan nan nan nan nan nan nan nan nan nan nan nan nan nan nan nan nan nan nan nan nan nan nan nan nan nan nan nan nan nan nan nan nan nan nan nan nan nan nan nan nan nan nan nan nan nan nan nan nan nan nan nan nan nan nan nan nan nan nan nan nan nan nan nan
Wind_Direction
250 243 242 243 250 250 240 228 220 216 216 224 240 248 246 241 234 225 224 224 231 235 242 250 258 259 254 247 240 234 232 224 222 224 224 215 203 198 200 210 203 193 196 187 200 209 210 206 202 202 211 208 205 206 207 214 225 228 229 235 241 253 264 269 271 257 245 276 283 286 280 291 295 311 308 313 318 321 324 335 339 340 346 351 354
244 237 234 240 246 246 240 231 224 217 209 208 212 220 224 228 225 220 221 217 228 229 234 238 250 260 258 256 251 245 240 239 240 239 234 227 216 215 212 217 213 199 201 193 191 202 215 216 208 206 216 221 220 217 220 220 224 220 222 241 241 254 273 275 280 279 272 260 265 276 285 296 301 308 312 311 319 321 330 344 348 346 350 353 359
236 241 238 237 242 245 247 243 235 225 219 215 213 211 216 218 219 220 216 211 219 223 226 234 247 259 260 258 257 252 250 246 246 252 247 242 232 222 224 228 226 214 209 201 198 203 209 215 212 216 222 223 223 227 230 227 236 239 234 247 250 251 269 280 276 277 279 277 285 285 294 292 303 310 309 318 326 333 343 354 354 359 358 354 2
233 236 234 233 237 240 242 241 242 233 224 219 218 217 221 223 224 220 213 209 209 213 219 225 235 250 263 265 265 261 259 255 252 253 255 253 246 235 228 230 231 227 222 215 211 211 209 210 209 218 226 231 227 228 231 237 238 243 246 248 262 261 266 274 283 285 284 285 280 296 293 295 302 313 321 322 328 331 340 354 351 359 12 2 356
239 239 239 236 234 235 237 237 237 233 229 222 217 217 216 216 218 221 223 218 211 210 211 219 225 234 250 267 277 276 272 269 264 258 254 252 251 244 237 233 231 230 229 227 223 221 215 214 208 217 225 227 224 227 229 233 238 245 249 252 261 266 267 275 280 285 287 292 288 290 293 296 309 313 317 320 315 323 330 338 348 355 6 1 351
236 239 240 238 236 236 234 234 233 231 224 219 217 215 217 219 215 210 216 222 222 220 220 221 224 226 230 244 268 280 280 275 272 269 266 259 255 250 244 241 238 235 232 231 230 231 228 224 219 221 225 228 222 226 229 232 236 241 247 251 260 264 266 270 280 286 291 297 298 288 288 305 295 309 315 313 316 316 320 337 330 330 330 335 351
244 243 238 231 232 234 236 234 232 228 222 217 217 217 216 218 221 216 212 212 221 227 228 232 231 227 222 227 238 260 275 278 274 268 263 260 261 258 252 247 244 242 240 238 237 237 236 233 233 235 236 236 232 228 227 230 238 240 250 254 257 263 265 268 274 282 289 290 289 304 306 305 310 310 303 304 314 326 335 329 320 322 324 337 349
248 238 230 227 227 229 230 231 231 226 224 222 220 221 221 220 222 223 222 213 212 218 224 231 235 241 233 227 223 236 255 265 268 266 262 263 262 260 258 253 251 250 247 245 243 242 242 241 241 244 249 249 251 244 246 237 241 240 245 255 257 260 262 265 272 281 284 289 296 297 302 304 294 304 300 292 296 307 325 332 339 322 319 323 331
235 239 233 222 216 213 212 220 224 224 227 227 224 223 224 221 219 220 224 222 218 219 221 222 228 237 242 241 229 223 233 249 259 265 266 263 262 260 261 258 256 254 252 251 250 250 246 245 244 246 250 259 272 270 269 270 261 255 248 260 259 264 264 269 279 279 283 287 288 295 297 294 300 296 291 299 316 332 318 309 316 328 323 314 318
270 270 263 250 233 220 211 210 219 222 225 225 223 221 222 222 219 218 219 224 224 224 225 225 227 233 243 249 249 240 231 234 247 284 280 267 265 263 260 259 256 255 255 253 252 255 256 255 252 256 258 260 264 275 281 284 283 277 271 270 273 274 276 277 278 285 287 286 292 290 288 295 294 301 306 308 304 306 302 307 308 304 294 309 312
255 242 235 239 243 235 225 217 219 223 224 225 223 223 223 223 222 220 220 222 224 226 231 230 230 232 238 249 257 255 247 241 255 272 281 285 262 257 259 259 258 255 255 256 255 255 255 259 258 257 255 252 252 257 270 280 281 285 288 288 285 284 280 281 281 283 283 287 286 287 295 291 293 297 303 302 301 310 310 299 305 293 292 283 282
241 231 227 229 232 237 234 229 225 226 225 223 225 228 232 231 227 224 223 222 225 230 234 237 235 234 234 237 245 252 253 255 265 266 266 263 256 251 252 254 256 257 255 255 253 252 251 251 252 254 255 258 256 253 253 256 264 269 274 279 283 289 294 291 284 277 284 285 283 289 287 292 292 290 295 297 306 298 304 301 300 298 290 290 296
241 242 237 238 234 230 232 231 231 230 228 226 224 227 233 235 233 228 224 224 227 229 232 237 238 237 235 236 239 242 245 250 258 262 267 271 273 262 248 251 253 254 255 254 253 252 250 247 245 247 247 247 251 254 256 253 253 256 261 264 269 281 291 301 300 291 280 282 284 281 290 287 287 291 295 296 294 295 285 289 294 296 297 294 295
237 240 240 240 241 241 239 237 234 231 228 229 232 230 229 232 234 231 228 226 227 228 229 231 233 235 236 236 236 236 237 235 244 245 247 255 261 261 246 246 246 248 252 255 253 253 253 252 248 245 247 248 249 249 250 251 251 251 254 261 266 269 277 288 293 301 294 286 285 284 283 286 295 290 289 290 291 294 286 nan nan nan 286 294 290
235 238 238 235 233 233 235 238 239 238 236 234 235 235 234 232 234 233 231 230 228 227 228 228 230 234 235 238 240 238 239 234 237 239 242 245 245 252 245 244 242 242 245 248 250 251 253 256 256 254 250 252 254 257 255 253 251 249 251 254 262 266 269 271 nan nan nan 284 287 289 283 281 289 288 281 283 293 293 290 285 281 281 278 278 282
234 236 238 237 235 232 232 232 235 238 238 236 239 241 238 235 235 237 237 234 232 229 229 230 228 228 232 237 242 245 247 242 242 242 240 239 245 245 245 246 244 242 243 247 250 252 253 255 258 258 259 258 256 261 262 259 257 255 252 252 253 259 265 275 nan nan 282 282 284 286 282 281 284 284 283 281 279 280 279 277 275 276 275 276 283
238 241 242 241 238 236 236 237 237 237 237 235 234 235 237 238 240 242 241 241 239 235 231 230 228 228 230 236 241 247 249 245 243 244 243 240 246 243 243 243 244 244 245 249 252 254 256 258 258 257 256 258 258 261 262 264 260 259 258 255 254 254 255 259 nan 281 286 284 284 285 287 285 280 283 287 292 288 277 275 271 279 285 287 289 287
241 243 242 240 238 238 241 243 241 239 240 237 235 237 238 239 240 247 246 243 245 245 240 239 235 230 230 234 239 245 248 247 244 245 248 247 252 251 249 248 246 246 243 246 249 251 253 249 253 258 258 256 254 254 258 263 263 261 260 257 254 257 260 262 258 258 270 282 286 289 287 283 282 273 269 276 284 282 286 289 286 284 294 298 295
236 236 235 238 242 246 248 247 244 242 241 239 239 238 237 236 236 238 240 243 246 250 250 250 250 249 244 240 234 238 246 248 249 250 251 250 251 254 252 250 247 247 246 245 248 251 250 252 251 253 255 253 249 252 254 262 264 262 260 258 256 257 259 258 259 257 258 260 263 265 263 270 270 271 271 276 278 283 288 293 286 291 296 298 297
235 235 234 238 244 247 248 246 245 243 242 241 242 243 243 240 236 235 235 238 240 243 245 252 255 254 257 259 258 251 247 248 250 251 257 253 253 257 257 256 255 254 253 252 249 249 251 249 249 248 247 247 248 249 252 261 268 262 261 261 258 250 251 255 262 266 264 265 264 265 265 262 263 266 266 265 269 277 286 290 291 293 297 297 296
235 234 234 237 239 nan nan 244 243 242 245 246 246 247 246 244 242 239 235 234 236 236 238 242 246 248 248 255 261 261 258 254 252 249 251 254 248 252 256 262 263 262 259 257 255 252 251 253 252 252 247 242 240 240 242 245 255 260 260 260 259 250 245 251 254 253 259 260 261 261 263 266 267 269 269 269 271 276 283 289 292 295 297 297 295
239 nan nan nan 237 238 nan 240 243 244 245 246 245 245 247 249 249 246 242 239 236 236 237 238 240 242 243 245 253 256 255 254 251 245 247 252 257 258 253 254 257 255 258 259 257 256 256 253 253 252 250 250 248 249 248 252 257 267 265 262 244 234 244 253 254 257 261 263 264 264 266 268 269 272 274 275 277 280 284 289 294 297 299 301 303
243 243 242 240 nan nan nan 242 244 245 245 246 248 247 nan nan nan 247 246 244 241 239 239 240 242 243 244 245 248 251 251 253 252 249 245 243 241 247 255 252 246 252 256 255 255 254 253 253 251 247 241 237 237 239 245 251 258 267 265 260 257 250 250 255 257 259 260 262 263 264 265 267 269 270 273 274 277 281 284 288 290 294 298 301 304
nan nan nan nan nan nan nan nan nan nan 245 nan nan nan nan nan nan nan nan nan nan nan nan 241 243 243 243 244 244 247 249 250 249 245 245 239 238 234 234 242 250 253 253 255 255 254 254 253 250 241 238 239 239 240 242 249 259 258 260 263 264 261 262 259 261 260 259 260 263 264 265 267 269 269 272 275 277 280 283 284 287 292 295 296 300
nan nan nan 245 nan nan nan nan nan nan nan nan nan nan nan nan nan nan nan nan nan nan nan nan nan nan nan nan nan 242 243 245 247 244 240 243 245 244 240 241 247 257 255 255 257 258 254 248 245 244 244 244 243 246 250 252 256 260 262 264 265 265 265 265 263 263 262 263 265 265 266 268 270 272 272 273 275 276 279 281 284 288 291 292 295
nan nan 244 nan nan nan nan nan nan nan nan nan nan nan nan nan nan nan nan nan nan nan nan nan nan nan nan nan nan nan nan 244 245 246 nan nan nan nan nan 242 247 255 258 252 246 242 246 250 251 253 253 nan 252 253 252 252 250 251 256 262 265 265 263 260 260 265 268 268 267 268 267 266 268 270 273 274 276 279 279 279 279 282 286 287 288
nan nan nan nan nan nan nan nan nan nan nan nan nan nan nan nan nan nan nan nan nan nan nan nan nan nan nan nan nan nan nan nan nan nan nan 244 244 243 nan nan nan nan nan nan nan nan nan nan nan nan nan nan nan nan nan 251 254 257 261 264 266 265 267 274 276 273 270 269 268 269 268 269 269 270 272 275 276 277 278 278 279 281 281 284 288
nan nan nan nan nan nan nan nan nan nan nan nan nan nan nan nan nan nan nan nan nan nan nan nan nan nan nan nan nan nan nan nan nan nan nan nan nan 243 244 245 nan nan nan nan nan nan nan nan nan nan nan nan nan nan nan nan nan 260 261 264 268 271 273 275 275 275 274 272 270 268 268 270 272 274 274 275 275 274 275 279 280 280 280 281 283
nan nan nan nan nan nan nan nan nan nan nan nan nan nan nan nan nan nan nan nan nan nan nan nan nan nan nan nan nan nan nan nan nan nan nan nan nan nan nan nan nan nan nan nan nan nan nan nan nan nan nan nan nan nan nan nan nan nan nan 265 269 271 269 268 270 272 273 273 273 273 273 272 273 273 274 274 277 278 277 279 280 281 277 282 284
nan nan nan nan nan nan nan nan nan nan nan nan nan nan nan nan nan nan nan nan nan nan nan nan nan nan nan nan nan nan nan nan nan nan nan nan nan nan nan nan nan nan nan nan nan nan nan nan nan nan nan nan nan nan nan nan nan nan nan nan nan 270 270 269 269 268 270 273 273 273 273 271 270 270 272 276 278 281 282 285 282 284 283 283 282
nan nan nan nan nan nan nan nan nan nan nan nan nan nan nan nan nan nan nan nan nan nan nan nan nan nan nan nan nan nan nan nan nan nan nan nan nan nan nan nan nan nan nan nan nan nan nan nan nan nan nan nan nan nan nan nan nan nan nan nan nan nan nan nan 267 nan nan 270 271 273 273 273 273 273 275 278 278 277 279 285 286 284 285 284 282
nan nan nan nan nan nan nan nan nan nan nan nan nan nan nan nan nan nan nan nan nan nan nan nan nan nan nan nan nan nan nan nan nan nan nan nan nan nan nan nan nan nan nan nan nan nan nan nan nan nan nan nan nan nan nan nan nan nan nan nan nan nan nan 264 266 266 267 269 270 272 274 276 277 279 281 281 278 275 276 278 282 281 280 281 282
nan nan nan nan nan nan nan nan nan nan nan nan nan nan nan nan nan nan nan nan nan nan nan nan nan nan nan nan nan nan nan nan nan nan nan nan nan nan nan nan nan nan nan nan nan nan nan nan nan nan nan nan nan nan nan nan nan nan nan nan nan nan nan nan nan 264 265 267 269 270 273 276 279 281 283 282 280 277 276 277 278 278 279 280 281
nan nan nan nan nan nan nan nan nan nan nan nan nan nan nan nan nan nan nan nan nan nan nan nan nan nan nan nan nan nan nan nan nan nan nan nan nan nan nan nan nan nan nan nan nan nan nan nan nan nan nan nan nan nan nan nan nan nan nan nan nan nan 256 258 260 261 262 264 266 269 271 274 276 277 277 277 280 281 280 279 278 279 281 285 284
nan nan nan nan nan nan nan nan nan nan nan nan nan nan nan nan nan nan nan nan nan nan nan nan nan nan nan nan nan nan nan nan nan nan nan nan nan nan nan nan nan nan nan nan nan nan nan nan nan nan nan nan nan nan nan nan nan nan nan nan nan nan nan nan 256 nan 257 258 260 264 267 268 270 271 272 271 273 276 279 279 280 283 283 284 285
nan nan nan nan nan nan nan nan nan nan nan nan nan nan nan nan nan nan nan nan nan nan nan nan nan nan nan nan nan nan nan nan nan nan nan nan nan nan nan nan nan nan nan nan nan nan nan nan nan nan nan nan nan nan nan nan nan nan nan nan nan nan nan nan 253 253 nan nan 254 254 257 261 264 266 268 270 272 273 275 277 279 281 284 284 283
nan nan nan nan nan nan nan nan nan nan nan nan nan nan nan nan nan nan nan nan nan nan nan nan nan nan nan nan nan nan nan nan nan nan nan nan nan nan nan nan nan nan nan nan nan nan nan nan nan nan nan nan nan nan nan nan nan nan nan nan nan nan nan nan nan 255 nan 253 252 252 254 256 258 260 264 265 267 269 271 273 275 278 281 283 282
nan nan nan nan nan nan nan nan nan nan nan nan nan nan nan nan nan nan nan nan nan nan nan nan nan nan nan nan nan nan nan nan nan nan nan nan nan nan nan nan nan nan nan nan nan nan nan nan nan nan nan nan nan nan nan nan nan nan nan nan nan nan nan nan nan nan nan nan 255 253 253 254 256 259 262 264 264 264 266 269 271 273 275 279 280
nan nan nan nan nan nan nan nan nan nan nan nan nan nan nan nan nan nan nan nan nan nan nan nan nan nan nan nan nan nan nan nan nan nan nan nan nan nan nan nan nan nan nan nan nan nan nan nan nan nan nan nan nan nan nan nan nan nan nan nan nan nan nan nan nan nan nan nan nan 256 255 255 256 258 260 262 263 264 263 263 267 268 269 270 274
nan nan nan nan nan nan nan nan nan nan nan nan nan nan nan nan nan nan nan nan nan nan nan nan nan nan nan nan nan nan nan nan nan nan nan nan nan nan nan nan nan nan nan nan nan nan nan nan nan nan nan nan nan nan nan nan nan nan nan nan nan nan nan nan nan nan nan nan nan nan nan 256 256 256 257 260 261 262 261 261 262 264 265 267 268
nan nan nan nan nan nan nan nan nan nan nan nan nan nan nan nan nan nan nan nan nan nan nan nan nan nan nan nan nan nan nan nan nan nan nan nan nan nan nan nan nan nan nan nan nan nan nan nan nan nan nan nan nan nan nan nan nan nan nan nan nan nan nan nan nan nan nan nan nan nan nan nan nan nan nan nan nan nan nan 262 262 263 264 265 265
nan nan nan nan nan nan nan nan nan nan nan nan nan nan nan nan nan nan nan nan nan nan nan nan nan nan nan nan nan nan nan nan nan nan nan nan nan nan nan nan nan nan nan nan nan nan nan nan nan nan nan nan nan nan nan nan nan nan nan nan nan nan nan nan nan nan nan nan nan nan nan nan nan nan nan nan nan nan nan nan 259 260 260 261 262
nan nan nan nan nan nan nan nan nan nan nan nan nan nan nan nan nan nan nan nan nan nan nan nan nan nan nan nan nan nan nan nan nan nan nan nan nan nan nan nan nan nan nan nan nan nan nan nan nan nan nan nan nan nan nan nan nan nan nan nan nan nan nan nan nan nan nan nan nan nan nan nan nan nan nan nan nan nan nan nan nan nan 260 261 262
nan nan nan nan nan nan nan nan nan nan nan nan nan nan nan nan nan nan nan nan nan nan nan nan nan nan nan nan nan nan nan nan nan nan nan nan nan nan nan nan nan nan nan nan nan nan nan nan nan nan nan nan nan nan nan nan nan nan nan nan nan nan nan nan nan nan nan nan nan nan nan nan nan nan nan nan nan nan nan nan nan nan nan 260 261
nan nan nan nan nan nan nan nan nan nan nan nan nan nan nan nan nan nan nan nan nan nan nan nan nan nan nan nan nan nan nan nan nan nan nan nan nan nan nan nan nan nan nan nan nan nan nan nan nan nan nan nan nan nan nan nan nan nan nan nan nan nan nan nan nan nan nan nan nan nan nan nan nan nan nan nan nan nan nan nan nan nan nan nan nan
nan nan nan nan nan nan nan nan nan nan nan nan nan nan nan nan nan nan nan nan nan nan nan nan nan nan nan nan nan nan nan nan nan nan nan nan nan nan nan nan nan nan nan nan nan nan nan nan nan nan nan nan nan nan nan nan nan nan nan nan nan nan nan nan nan nan nan nan nan nan nan nan nan nan nan nan nan nan nan nan nan nan nan nan nan
nan nan nan nan nan nan nan nan nan nan nan nan nan nan nan nan nan nan nan nan nan nan nan nan nan nan nan nan nan nan nan nan nan nan nan nan nan nan nan nan nan nan nan nan nan nan nan nan nan nan nan nan nan nan nan nan nan nan nan nan nan nan nan nan nan nan nan nan nan nan nan nan nan nan nan nan nan nan nan nan nan nan nan nan nan
nan nan nan nan nan nan nan nan nan nan nan nan nan nan nan nan nan nan nan nan nan nan nan nan nan nan nan nan nan nan nan nan nan nan nan nan nan nan nan nan nan nan nan nan nan nan nan nan nan nan nan nan nan nan nan nan nan nan nan nan nan nan nan nan nan nan nan nan nan nan nan nan nan nan nan nan nan nan nan nan nan nan nan nan nan
nan nan nan nan nan nan nan nan nan nan nan nan nan nan nan nan nan nan nan nan nan nan nan nan nan nan nan nan nan nan nan nan nan nan nan nan nan nan nan nan nan nan nan nan nan nan nan nan nan nan nan nan nan nan nan nan nan nan nan nan nan nan nan nan nan nan nan nan nan nan nan nan nan nan nan nan nan nan nan nan nan nan nan nan nan
nan nan nan nan nan nan nan nan nan nan nan nan nan nan nan nan nan nan nan nan nan nan nan nan nan nan nan nan nan nan nan nan nan nan nan nan nan nan nan nan nan nan nan nan nan nan nan nan nan nan nan nan nan nan nan nan nan nan nan nan nan nan nan nan nan nan nan nan nan nan nan nan nan nan nan nan nan nan nan nan nan nan nan nan nan
nan nan nan nan nan nan nan nan nan nan nan nan nan nan nan nan nan nan nan nan nan nan nan nan nan nan nan nan nan nan nan nan nan nan nan nan nan nan nan nan nan nan nan nan nan nan nan nan nan nan nan nan nan nan nan nan nan nan nan nan nan nan nan nan nan nan nan nan nan nan nan nan nan nan nan nan nan nan nan nan nan nan nan nan nan